Wind_Speed
25 27 29 28 27 25 28 27 6 15 24 14 9 14 24 29 17 19 12 12 18 19 19 18 17 16 5 11 8 6 5 5 11 16 19 12 13 16 19 12 14 9 15 19
21 23 26 29 28 29 32 17 18 16 23 9 14 21 24 29 23 18 15 16 16 18 19 17 15 13 14 3 5 5 6 5 11 18 18 19 14 15 21 17 14 17 15 15
22 22 23 26 26 28 37 14 5 9 22 26 21 22 22 20 27 24 18 17 13 18 18 16 12 12 5 3 2 4 5 13 18 14 17 7 3 7 12 3 6 16 14 21
22 23 23 23 26 30 40 20 6 13 7 10 20 19 14 20 18 16 17 19 16 17 16 17 18 18 16 13 11 14 9 15 17 22 24 25 25 24 16 18 16 15 19 21
22 22 23 23 23 25 35 9 6 10 12 28 20 17 19 21 16 21 13 15 18 21 19 16 15 10 14 16 9 12 12 14 15 20 21 22 25 27 26 24 25 25 25 26
23 22 24 24 24 24 15 14 14 12 16 14 15 17 20 18 17 20 10 14 11 15 15 11 13 14 14 11 11 13 13 10 12 18 16 16 14 25 20 18 21 21 22 26
20 22 22 23 25 24 20 19 13 6 6 12 15 18 22 20 18 17 5 10 14 3 4 8 11 14 17 19 18 20 18 17 13 15 17 20 18 16 19 22 17 17 22 23
17 17 18 22 27 26 28 15 12 6 7 14 17 20 18 20 19 11 12 5 3 2 5 4 6 9 15 22 23 20 20 17 14 15 17 20 20 22 17 12 20 20 19 18
16 17 18 18 16 20 25 16 12 5 3 7 6 7 23 13 13 13 14 9 10 9 2 3 4 9 13 6 19 26 24 21 14 15 16 22 24 22 27 11 17 16 21 21
13 13 12 10 14 14 23 16 13 11 8 11 10 8 10 19 13 9 12 16 13 12 6 7 9 13 11 11 10 11 17 18 20 16 17 21 24 24 18 12 13 3 15 7
11 11 10 9 9 9 7 9 12 8 5 1 6 13 13 7 13 12 12 11 12 9 8 9 10 11 16 18 21 21 9 5 8 15 20 19 21 20 22 20 14 4 7 6
11 11 11 10 11 10 9 6 6 9 4 3 5 12 13 19 18 14 11 10 11 17 7 8 9 10 10 15 16 19 18 16 13 8 5 8 7 10 12 7 5 4 5 4
13 13 12 14 15 14 13 9 7 6 5 11 16 18 17 21 22 19 19 18 19 17 12 7 6 10 11 14 17 18 20 22 16 19 20 20 28 16 8 5 4 6 5 6
14 15 16 15 15 16 16 15 12 11 4 5 13 15 23 25 19 22 21 20 18 19 20 17 8 9 12 13 17 15 14 9 13 15 18 24 16 13 11 8 6 9 12 15
18 18 18 19 20 20 20 19 20 19 16 4 3 7 16 17 22 24 25 25 26 23 16 8 11 19 15 13 12 15 18 17 10 10 16 11 13 4 7 6 9 13 20 21
22 23 24 23 23 22 18 16 28 26 23 7 4 5 9 14 21 25 25 31 28 25 20 11 19 17 5 4 11 19 26 29 31 22 21 11 12 6 9 12 14 15 18 21
26 29 30 29 28 27 25 5 2 16 29 8 4 4 8 12 16 18 23 21 23 20 22 19 18 17 6 8 16 21 28 26 17 9 6 6 6 5 13 17 16 18 20 20
25 23 23 25 29 33 38 39 10 9 26 7 4 3 5 9 7 9 21 12 15 10 9 11 14 20 15 9 17 21 22 21 13 11 11 12 11 13 16 19 22 23 22 22
19 18 14 22 18 22 34 31 32 24 11 6 6 7 4 10 9 8 13 11 5 8 7 13 9 8 11 12 19 21 16 16 15 13 12 13 17 20 21 23 23 23 23 21
18 14 11 7 13 19 26 15 9 11 5 7 4 16 6 13 11 9 10 8 5 5 10 12 10 16 29 32 29 24 20 16 15 17 17 19 21 23 25 26 23 22 23 22
15 9 8 28 35 15 5 6 6 9 4 9 11 16 8 11 6 7 12 5 5 4 6 9 6 10 17 34 38 36 31 24 20 21 16 17 21 27 27 24 23 22 22 21
9 15 29 15 7 6 5 7 6 7 6 10 11 14 16 8 8 6 7 4 4 5 8 4 4 7 18 20 19 18 24 26 21 20 15 17 22 26 26 26 24 24 22 25
28 13 5 6 5 6 6 10 5 5 7 10 14 6 9 6 9 3 4 4 4 8 3 4 4 1 4 5 5 6 7 14 15 15 16 20 23 26 26 28 29 29 28 26
5 5 5 5 5 6 4 8 9 9 13 19 21 13 5 5 6 3 4 5 3 4 4 5 2 8 7 4 3 5 8 13 19 20 24 23 29 30 29 30 29 27 26 25
2 3 3 4 1 4 5 5 7 12 16 22 16 6 6 5 3 3 2 4 5 5 3 3 7 8 3 3 6 11 15 18 18 22 29 33 34 33 29 27 26 24 23 23
1 2 2 1 2 2 3 4 6 11 17 19 9 4 4 4 3 5 6 3 4 2 3 7 9 6 4 6 8 9 13 15 21 27 29 32 32 30 27 26 24 21 21 21
2 2 3 3 5 4 4 12 9 16 19 4 2 6 6 3 4 5 3 2 3 6 7 7 7 6 6 7 9 10 14 17 20 23 24 27 28 27 26 24 23 21 20 19
Wind_Direction
248 244 237 238 236 238 223 219 214 208 195 193 212 225 226 241 254 237 230 258 277 272 265 262 258 253 306 351 321 276 50 289 268 242 238 267 284 211 250 236 231 233 253 260
252 252 246 236 233 231 222 213 208 204 195 213 219 231 233 243 254 245 253 241 246 261 261 265 238 260 111 136 318 29 4 280 263 258 263 264 239 245 263 265 240 244 252 263
254 254 250 242 230 226 221 201 178 183 205 222 214 224 229 238 231 259 251 259 265 258 245 255 256 253 242 208 316 29 310 262 264 268 276 316 259 270 298 227 265 260 269 293
253 256 252 245 241 228 219 188 190 181 181 195 218 224 229 230 236 238 252 253 249 245 252 250 246 248 256 221 220 260 254 251 253 261 265 275 281 279 234 249 239 254 270 269
257 254 252 247 239 237 222 185 172 171 223 206 214 230 243 235 231 223 229 229 232 239 247 246 255 261 263 250 231 224 217 256 259 260 262 261 265 269 266 264 268 271 272 273
259 252 246 243 238 234 231 193 186 200 202 201 205 217 225 237 244 249 232 230 273 270 249 315 302 306 293 263 256 229 251 249 257 259 265 269 271 248 262 266 262 261 263 269
253 253 246 242 246 229 224 190 200 204 213 203 209 218 222 230 235 244 257 248 243 325 337 302 274 269 268 266 261 256 250 248 256 259 268 261 256 261 259 263 266 264 256 262
249 244 244 244 236 228 223 183 183 198 237 240 234 220 225 230 234 234 192 190 175 49 329 277 253 247 247 243 244 242 235 241 249 250 253 260 263 256 253 251 273 264 263 261
244 240 239 244 236 205 223 229 217 162 296 224 265 293 219 209 211 196 208 192 175 157 214 277 228 238 228 247 229 223 231 234 233 244 243 249 253 262 262 269 272 284 263 257
231 227 224 229 223 207 209 215 221 207 229 243 222 206 234 228 207 230 201 190 190 189 206 239 251 254 258 251 267 256 217 223 227 235 249 259 266 276 287 255 265 37 331 347
203 200 200 201 202 216 206 188 186 190 215 191 217 222 233 265 268 225 190 184 200 194 226 241 249 253 253 256 253 260 252 235 217 237 247 253 261 265 250 271 279 354 338 352
206 203 197 189 193 197 190 208 216 210 222 296 245 243 234 240 245 277 241 208 216 211 224 234 251 248 263 268 253 249 262 266 269 239 250 281 275 294 328 343 320 21 2 106
209 211 213 214 214 212 210 209 200 193 238 272 251 245 244 242 240 239 254 237 237 241 233 246 271 266 271 255 250 259 262 264 280 262 263 240 244 244 261 276 217 169 215 176
225 226 228 227 222 221 224 220 219 209 204 249 256 244 240 236 238 234 233 238 241 252 246 250 245 255 257 261 275 274 270 309 271 261 260 272 244 246 252 231 229 200 164 172
236 234 232 231 228 229 233 233 227 216 213 265 291 270 235 232 221 226 224 227 233 233 235 235 245 250 263 267 270 265 264 261 263 247 264 286 277 266 189 202 192 177 160 157
244 242 239 236 230 224 224 237 238 227 223 256 266 254 228 208 216 216 223 224 229 234 234 241 245 249 240 262 261 268 269 271 238 247 269 282 284 187 176 171 160 162 151 154
249 246 240 235 230 223 207 186 231 218 209 229 260 244 212 215 195 221 220 224 219 229 235 239 248 251 243 255 256 261 267 284 245 225 226 284 219 190 165 153 154 151 149 148
256 251 243 236 228 224 232 221 237 191 183 193 240 235 163 185 212 205 200 203 213 218 227 238 233 248 224 253 256 265 263 249 239 235 241 257 200 173 157 155 157 153 151 152
245 237 230 215 212 198 216 228 222 203 182 200 213 225 225 176 203 166 180 191 200 225 222 234 238 240 224 243 251 252 252 246 245 231 210 201 196 173 168 164 164 157 159 158
238 200 168 186 169 165 158 134 146 171 235 235 234 215 195 174 173 175 162 184 222 220 220 221 227 246 252 250 252 256 256 262 223 203 191 176 178 177 175 176 169 167 163 161
167 166 177 144 144 141 134 159 174 180 216 213 213 212 178 184 210 162 192 184 208 228 197 197 233 244 241 247 249 251 248 245 229 215 226 211 194 181 175 172 170 168 165 163
162 140 133 132 133 155 176 173 183 198 218 177 194 200 209 162 196 206 186 218 197 249 149 194 243 254 262 263 258 252 237 228 222 206 218 194 188 180 171 166 167 166 163 171
137 135 157 170 173 192 200 172 185 192 158 167 164 145 153 169 201 214 190 227 231 137 210 229 254 236 349 312 284 254 219 196 193 192 189 179 173 166 166 169 172 174 178 184
172 171 153 223 174 223 207 191 189 157 169 169 171 162 172 165 180 195 217 215 178 232 232 237 18 1 321 273 215 176 173 176 178 175 179 175 159 167 176 182 180 181 181 180
166 228 202 203 109 50 47 10 130 152 171 166 160 153 166 168 156 220 242 196 230 226 242 56 10 344 306 230 201 189 183 182 189 179 169 166 173 177 175 178 179 182 182 180
32 38 239 161 181 107 174 136 120 164 169 160 154 168 181 196 202 196 223 239 234 68 27 355 340 333 274 241 211 192 189 184 175 173 176 177 178 174 168 169 178 179 183 186
358 77 32 329 56 91 139 146 149 176 155 148 171 196 186 136 206 205 248 357 28 359 332 324 324 317 256 221 202 192 185 179 178 176 176 172 169 169 168 171 172 177 181 188
Height
1462 1464 1468 1472 1476 1479 1482 1484 1482 1483 1487 1494 1490 1485 1475 1476 1468 1470 1471 1475 1472 1465 1462 1462 1462 1461 1461 1473 1471 1465 1463 1463 1456 1451 1450 1447 1448 1459 1461 1460 1463 1458 1453 1434
1456 1458 1460 1464 1468 1472 1475 1471 1474 1479 1482 1478 1479 1475 1473 1474 1471 1469 1470 1469 1470 1470 1466 1465 1463 1462 1471 1477 1477 1471 1471 1465 1465 1457 1450 1447 1448 1457 1451 1445 1449 1462 1454 1442
1449 1452 1453 1457 1460 1465 1468 1466 1465 1470 1474 1470 1467 1466 1465 1465 1468 1468 1469 1468 1469 1468 1464 1463 1463 1465 1466 1471 1474 1479 1479 1470 1470 1467 1451 1453 1472 1474 1464 1466 1465 1449 1447 1444
1444 1445 1447 1450 1453 1458 1460 1451 1449 1452 1458 1460 1462 1460 1460 1460 1462 1467 1470 1470 1471 1468 1465 1462 1462 1464 1466 1471 1473 1476 1475 1472 1468 1460 1456 1453 1451 1447 1450 1459 1460 1462 1452 1450
1438 1440 1441 1443 1446 1450 1445 1441 1443 1446 1448 1455 1459 1457 1455 1454 1456 1463 1470 1470 1467 1468 1464 1463 1463 1463 1463 1462 1463 1469 1469 1468 1464 1459 1455 1455 1453 1444 1441 1443 1441 1439 1437 1432
1432 1434 1436 1437 1439 1443 1435 1436 1440 1441 1443 1447 1451 1450 1452 1454 1456 1458 1466 1473 1473 1467 1470 1467 1469 1470 1468 1473 1466 1468 1467 1467 1464 1457 1451 1448 1454 1436 1440 1441 1438 1440 1439 1428
1426 1427 1429 1431 1432 1433 1436 1433 1437 1440 1437 1441 1443 1446 1449 1452 1454 1459 1466 1468 1466 1472 1474 1473 1472 1471 1470 1468 1465 1466 1465 1465 1461 1458 1455 1458 1434 1431 1430 1428 1425 1426 1425 1422
1422 1423 1424 1426 1427 1429 1430 1431 1435 1439 1437 1433 1435 1439 1445 1448 1451 1458 1466 1467 1471 1474 1477 1474 1471 1469 1469 1463 1462 1460 1460 1457 1459 1458 1448 1437 1431 1423 1422 1423 1422 1418 1417 1415
1418 1419 1421 1422 1423 1425 1427 1430 1434 1439 1442 1439 1442 1442 1440 1444 1450 1458 1461 1467 1470 1474 1478 1478 1472 1456 1447 1451 1442 1446 1448 1448 1451 1449 1445 1435 1422 1421 1419 1420 1416 1411 1412 1408
1415 1416 1418 1420 1422 1423 1425 1429 1436 1441 1443 1439 1440 1441 1444 1443 1446 1450 1456 1461 1467 1471 1472 1472 1467 1456 1445 1446 1442 1435 1436 1436 1439 1439 1439 1428 1417 1417 1419 1427 1417 1418 1417 1411
1413 1415 1418 1420 1423 1424 1427 1431 1435 1440 1440 1439 1440 1442 1446 1449 1450 1446 1450 1456 1459 1465 1468 1462 1456 1451 1442 1439 1434 1434 1440 1439 1438 1438 1437 1434 1417 1417 1417 1412 1415 1419 1420 1420
1412 1415 1418 1421 1424 1426 1430 1434 1434 1438 1440 1439 1440 1443 1445 1448 1449 1448 1446 1453 1447 1452 1453 1450 1446 1445 1441 1435 1430 1428 1426 1421 1421 1424 1422 1415 1417 1417 1417 1418 1418 1421 1426 1428
1411 1414 1417 1420 1423 1426 1430 1433 1435 1436 1439 1440 1440 1439 1441 1443 1444 1446 1446 1444 1448 1449 1453 1452 1451 1449 1439 1434 1427 1429 1425 1422 1422 1418 1410 1411 1413 1415 1416 1419 1421 1421 1424 1429
1410 1413 1416 1419 1422 1425 1428 1431 1434 1437 1440 1439 1433 1434 1434 1438 1441 1442 1443 1446 1447 1449 1449 1449 1447 1448 1440 1433 1427 1423 1421 1428 1421 1411 1409 1407 1408 1411 1415 1418 1420 1419 1418 1427
1406 1409 1412 1416 1419 1422 1425 1428 1430 1434 1438 1430 1428 1430 1429 1431 1433 1436 1439 1441 1443 1444 1446 1445 1443 1442 1442 1435 1431 1422 1422 1418 1421 1411 1406 1403 1404 1410 1414 1417 1418 1420 1421 1425
1401 1404 1408 1411 1415 1420 1424 1426 1425 1428 1433 1434 1428 1424 1424 1425 1428 1430 1434 1436 1439 1440 1440 1440 1440 1440 1441 1433 1418 1411 1412 1409 1409 1407 1407 1410 1409 1410 1412 1416 1417 1421 1423 1428
1394 1397 1401 1405 1408 1413 1414 1417 1417 1419 1429 1431 1428 1420 1418 1420 1423 1425 1428 1430 1433 1436 1436 1435 1435 1434 1434 1426 1409 1408 1409 1405 1399 1403 1406 1408 1409 1411 1413 1415 1419 1423 1427 1431
1383 1386 1390 1394 1399 1406 1407 1409 1415 1418 1423 1427 1422 1413 1416 1417 1418 1420 1424 1426 1430 1430 1431 1429 1427 1425 1425 1413 1401 1399 1398 1399 1398 1401 1403 1406 1407 1411 1412 1415 1420 1423 1427 1431
1376 1379 1382 1388 1391 1392 1395 1403 1411 1417 1420 1416 1412 1406 1406 1411 1413 1414 1420 1423 1425 1423 1422 1422 1425 1415 1404 1394 1394 1394 1393 1395 1395 1398 1401 1401 1404 1408 1411 1415 1419 1422 1426 1430
1368 1373 1376 1378 1382 1390 1395 1404 1408 1412 1411 1409 1401 1400 1401 1408 1409 1410 1415 1418 1415 1411 1408 1411 1409 1396 1394 1390 1389 1389 1390 1390 1392 1395 1398 1399 1401 1405 1409 1413 1417 1421 1425 1429
1363 1366 1369 1373 1382 1390 1395 1400 1402 1405 1403 1396 1393 1393 1395 1402 1401 1402 1406 1407 1405 1401 1393 1396 1387 1377 1377 1379 1380 1381 1384 1385 1386 1391 1394 1395 1397 1400 1405 1411 1416 1420 1424 1428
1361 1362 1367 1373 1380 1385 1387 1389 1388 1387 1381 1381 1383 1387 1390 1396 1399 1397 1399 1396 1396 1388 1387 1390 1378 1368 1368 1368 1368 1369 1372 1377 1381 1386 1390 1392 1394 1399 1404 1409 1414 1419 1423 1426
1362 1367 1369 1369 1374 1372 1370 1371 1370 1370 1373 1376 1380 1386 1390 1395 1396 1395 1393 1393 1387 1386 1387 1376 1364 1363 1368 1369 1369 1368 1368 1372 1377 1383 1387 1391 1394 1399 1405 1408 1412 1416 1420 1425
1360 1361 1363 1362 1362 1357 1353 1351 1355 1360 1367 1371 1376 1380 1382 1386 1389 1390 1390 1383 1383 1381 1374 1363 1365 1371 1371 1371 1371 1371 1372 1374 1377 1381 1384 1388 1394 1399 1403 1407 1411 1415 1419 1424
1358 1358 1354 1356 1355 1356 1357 1357 1356 1360 1365 1367 1374 1379 1379 1380 1385 1384 1383 1382 1375 1367 1358 1367 1375 1375 1374 1373 1372 1372 1373 1376 1378 1381 1384 1388 1393 1398 1402 1408 1413 1417 1420 1424
1359 1359 1357 1357 1356 1359 1360 1361 1362 1364 1365 1369 1374 1375 1377 1378 1376 1378 1375 1370 1362 1365 1373 1376 1376 1375 1374 1373 1373 1374 1375 1377 1379 1382 1385 1388 1394 1399 1403 1408 1413 1417 1421 1424
1359 1359 1359 1359 1357 1358 1359 1361 1362 1364 1366 1369 1373 1372 1368 1372 1369 1368 1365 1367 1374 1377 1377 1377 1377 1375 1374 1374 1374 1375 1376 1378 1381 1384 1387 1390 1396 1400 1404 1408 1413 1417 1421 1425